Theta_e
285 285 285 284 284 283 282 280 279 279 278 278 278 277 276 275 275 274 274 274 274 273 274 274 274 275 274 274 274 274 273 273 270 272 274 274 274 274 275 276 277 276 277
285 285 284 283 282 280 279 278 278 277 277 277 277 276 275 275 274 273 273 273 273 273 273 273 273 274 272 273 272 271 272 272 271 269 271 272 272 273 274 273 275 277 276
284 283 282 281 279 278 278 278 278 277 276 276 275 274 274 274 273 273 273 273 273 273 273 273 272 272 272 272 271 271 272 273 272 271 270 272 273 273 273 273 274 274 276
283 282 280 279 278 277 277 277 277 276 275 274 274 274 274 273 273 274 274 273 273 273 273 273 272 272 272 272 272 272 273 272 272 271 271 271 272 273 273 271 272 274 274
283 281 280 278 278 277 277 277 276 276 275 274 274 273 273 273 274 274 274 273 272 272 272 273 273 273 274 275 274 273 273 271 271 271 270 270 270 271 271 272 272 272 273
282 281 280 279 278 277 277 276 275 275 274 274 273 272 272 272 275 276 275 273 272 272 271 271 272 272 273 275 276 277 276 273 272 271 271 270 272 272 273 272 271 270 269
282 280 279 278 277 276 276 275 274 273 273 272 271 271 270 271 274 275 275 273 272 271 271 271 272 273 272 272 274 277 277 278 278 276 273 272 272 273 273 272 272 272 271
280 279 278 277 276 275 274 274 273 272 272 271 270 270 270 270 274 274 274 272 271 271 271 271 271 272 273 274 275 275 274 274 274 275 274 274 275 276 275 275 274 273 274
279 278 277 277 275 274 273 272 272 271 270 269 270 269 268 267 272 274 274 271 271 271 272 272 272 272 275 278 275 271 271 271 275 277 277 276 276 276 275 273 270 269 268
279 278 277 277 275 273 273 272 271 271 270 270 270 267 266 263 271 273 274 271 267 270 271 273 275 274 277 278 274 270 266 269 272 269 268 270 271 271 273 272 270 267 267
280 278 276 276 275 274 272 271 269 267 268 263 265 264 264 266 266 273 275 273 270 269 271 272 273 276 277 277 277 268 270 274 268 266 266 267 268 269 269 271 271 270 267
278 276 275 274 273 271 269 266 265 263 261 259 258 261 265 266 270 272 275 276 275 266 268 272 272 276 276 275 273 274 275 271 264 264 264 265 266 267 269 270 270 271 271
276 275 273 270 269 267 265 264 262 261 262 262 263 262 263 266 266 274 275 276 275 272 271 273 277 275 274 270 271 272 268 263 263 263 263 265 267 268 269 269 270 271 271
274 271 267 267 265 264 265 265 263 262 262 263 263 263 263 265 266 266 266 266 271 272 273 268 270 271 270 269 265 267 265 265 264 264 265 266 267 267 266 268 268 268 267
271 268 267 267 266 264 265 264 264 264 265 261 262 261 260 260 264 269 268 266 266 269 270 260 256 258 260 261 260 263 263 263 263 264 264 264 265 265 265 268 268 267 265
268 267 267 266 264 264 264 263 271 271 272 274 273 265 262 270 273 275 276 277 276 277 266 254 255 257 259 260 259 261 262 262 263 263 263 263 264 264 265 267 267 265 264
270 268 266 266 264 264 264 264 263 265 276 275 276 276 276 274 276 276 276 276 276 275 256 252 254 256 258 260 260 261 260 262 262 262 262 262 263 263 265 264 265 265 264
264 266 266 266 265 265 265 264 263 261 261 261 270 273 274 275 275 275 276 275 263 260 255 252 253 254 256 257 258 259 260 260 260 261 261 261 262 262 263 263 264 264 264
265 265 266 265 265 264 262 260 258 255 254 253 256 265 267 270 271 273 274 263 259 256 258 255 255 254 255 255 256 256 256 258 259 259 259 260 261 262 263 263 263 264 264
263 264 264 262 260 259 259 259 256 254 253 254 257 260 260 256 253 257 258 258 258 259 258 256 256 256 257 254 253 253 255 256 256 257 259 260 261 261 262 262 262 262 263
262 260 260 260 260 258 258 257 258 259 258 258 258 259 266 259 258 255 255 256 259 260 259 258 258 256 257 255 252 251 253 256 255 254 257 259 260 260 261 263 262 262 262
260 260 259 259 258 258 258 259 258 257 257 256 253 252 266 255 252 251 253 256 257 259 260 259 258 257 258 255 253 250 252 254 254 251 255 257 258 259 261 262 262 261 261
260 258 257 258 258 257 256 254 253 253 251 249 249 249 248 250 252 250 253 257 259 259 259 259 257 257 258 255 253 252 253 254 254 249 254 255 256 258 260 261 261 260 259
259 259 258 257 256 254 254 252 250 250 249 249 247 248 249 249 250 251 253 256 258 258 258 257 256 255 256 256 255 250 251 253 253 254 251 253 255 257 259 262 261 260 258
257 257 257 256 254 253 251 249 250 247 247 249 249 248 248 249 250 251 252 253 254 256 256 255 255 254 254 252 253 251 251 254 253 254 253 253 255 257 258 262 260 259 257
257 256 254 253 252 251 250 250 248 249 248 249 250 249 248 249 250 250 251 252 253 253 254 255 254 252 252 252 251 252 255 258 257 257 256 257 258 260 261 261 259 259 258
Wind_Speed
13 13 13 12 11 11 10 9 9 8 7 7 6 7 6 7 6 6 6 6 5 4 4 4 4 4 3 3 3 3 3 4 10 16 8 10 12 13 12 12 14 14 13
12 12 12 12 11 11 10 9 8 9 7 6 6 7 7 6 5 6 6 4 4 4 4 4 5 7 4 3 2 3 5 5 7 17 13 11 12 13 14 14 12 11 13
12 12 11 11 11 11 10 9 9 9 7 6 6 6 5 5 5 5 4 2 4 3 4 4 5 5 5 4 5 5 5 7 7 10 14 11 11 11 13 13 12 11 11
12 12 12 11 11 10 9 9 9 8 8 6 6 6 5 4 5 3 3 3 2 4 3 4 4 4 7 8 8 7 8 8 8 9 11 12 11 12 11 12 12 10 11
13 12 12 10 10 10 10 9 8 7 6 6 7 5 5 3 3 4 3 3 3 2 3 5 4 5 12 11 7 8 9 8 8 10 11 12 11 11 12 12 13 13 11
13 13 12 12 11 10 10 9 7 7 6 6 6 5 4 3 2 2 3 1 2 3 4 4 4 6 8 15 16 18 16 12 12 11 12 12 15 14 13 13 14 14 14
13 12 13 12 11 10 9 9 8 7 6 5 5 5 5 3 3 1 2 1 2 3 4 5 6 5 7 9 15 21 20 21 22 18 17 15 18 15 17 18 17 15 14
14 13 12 12 11 10 9 8 7 6 6 5 5 4 3 3 3 5 5 3 3 4 5 7 7 8 8 12 11 9 10 10 11 11 14 16 16 16 16 16 18 18 13
16 15 14 14 12 11 10 10 6 6 4 4 4 4 4 1 7 7 5 2 4 5 7 7 7 8 13 20 10 9 7 10 14 19 21 28 28 26 22 13 11 12 11
16 15 13 13 13 12 11 10 5 4 5 4 5 5 3 5 9 8 7 3 4 5 5 6 10 7 17 18 10 4 9 12 9 11 11 15 17 16 22 12 11 12 10
16 13 12 12 12 11 10 5 7 5 5 4 4 2 5 6 7 9 9 5 4 3 4 3 4 13 16 18 17 3 10 15 12 10 10 9 10 11 9 10 12 11 11
15 14 12 11 9 8 10 6 5 6 5 3 2 4 5 6 9 10 12 11 8 3 4 3 6 14 16 17 13 17 19 15 6 7 8 9 10 10 10 11 14 14 12
14 13 11 10 8 8 9 8 5 5 5 6 6 5 4 3 4 12 12 10 10 6 3 8 15 12 14 10 13 17 10 4 6 7 9 10 10 11 14 13 13 15 14
12 10 9 10 8 7 6 6 6 6 6 6 6 5 4 3 4 3 4 4 10 9 12 3 5 7 8 8 4 7 5 5 6 8 8 10 10 10 11 11 11 11 12
10 10 10 8 10 8 7 8 7 5 8 6 6 5 5 5 6 9 8 6 7 10 7 2 2 2 2 2 3 4 4 5 6 7 8 9 10 10 11 11 11 11 11
11 9 9 8 7 6 7 4 14 14 17 17 13 9 5 11 13 16 17 15 17 16 2 2 1 2 3 3 3 5 6 6 6 7 8 8 10 11 12 11 10 10 11
12 11 8 8 8 8 7 7 8 7 17 16 16 16 18 14 17 17 17 17 18 12 3 2 3 3 4 5 4 5 6 7 7 6 7 9 9 10 12 11 11 11 12
6 9 9 9 8 8 8 8 5 5 5 3 8 8 11 14 15 16 17 17 3 2 2 3 4 3 4 4 4 5 6 6 6 6 8 9 9 9 10 11 11 12 13
8 7 7 6 7 7 5 4 4 3 3 2 2 4 6 13 14 17 18 2 2 3 3 3 4 4 4 4 4 4 5 6 7 7 7 8 8 9 10 10 11 16 17
6 8 8 6 5 5 4 5 4 3 3 3 3 4 2 2 1 3 3 2 4 5 4 4 4 5 5 4 4 4 4 5 5 5 7 7 8 8 10 11 11 12 13
6 5 8 6 6 6 5 5 5 5 4 4 4 4 11 5 5 5 4 4 5 5 5 5 5 5 5 5 4 4 4 6 5 5 7 8 8 9 10 9 10 10 11
6 6 6 7 6 6 5 5 5 4 4 3 2 3 12 2 2 2 3 4 5 5 6 6 6 5 5 5 5 4 5 7 6 3 6 8 8 9 9 9 9 9 10
7 7 6 5 5 6 4 3 3 3 3 3 3 3 2 3 4 4 3 5 5 5 5 5 6 6 5 5 4 5 6 8 6 4 7 8 9 9 9 10 9 8 9
7 7 7 5 5 4 4 4 3 4 4 3 3 3 4 4 4 5 5 5 6 5 5 6 6 7 7 7 5 5 6 7 6 7 7 8 9 10 9 9 7 9 7
6 6 6 6 5 5 4 3 3 3 3 3 3 3 4 4 4 5 5 4 4 6 7 6 6 7 9 10 10 10 9 14 11 10 7 9 12 13 11 10 8 7 6
5 5 4 4 4 4 4 4 4 3 3 3 3 4 4 4 4 4 4 4 5 5 7 6 7 9 11 9 10 12 14 14 12 12 10 9 10 9 8 9 9 6 6
Wind_Direction
142 139 135 134 131 124 120 118 114 109 108 107 111 107 92 77 63 68 66 53 46 29 5 10 344 336 0 333 337 325 315 301 288 300 322 322 315 315 312 306 305 303 304
143 139 136 129 125 122 122 122 118 116 107 112 103 93 87 83 75 75 69 54 47 25 7 353 347 348 330 313 315 314 304 290 290 296 317 315 313 313 304 303 302 301 302
143 137 133 130 130 129 130 130 123 119 113 108 107 101 98 94 90 93 92 68 45 19 358 334 315 316 335 340 322 305 301 299 294 292 302 306 305 304 304 301 298 294 288
146 145 142 143 140 135 129 124 123 125 127 122 114 108 100 96 124 104 89 62 31 30 341 311 307 340 336 325 315 317 318 305 295 291 293 301 302 304 297 299 298 291 294
154 151 147 137 133 132 133 129 127 129 132 134 124 119 114 148 155 132 80 64 25 335 292 328 337 319 319 321 322 316 303 296 289 291 294 297 299 302 300 300 292 294 292
158 154 147 142 143 145 138 137 136 139 143 135 131 130 142 148 158 80 66 59 345 327 315 312 299 292 302 316 313 304 300 299 298 300 291 288 297 298 295 292 290 294 296
158 156 153 148 148 149 141 147 154 158 153 149 150 159 149 162 202 148 256 163 276 262 282 291 304 297 293 286 287 292 293 294 296 303 304 296 297 295 289 285 282 280 283
160 161 154 151 152 152 150 161 158 161 168 165 173 155 153 199 216 232 239 155 240 266 263 272 278 286 293 297 295 324 315 314 305 303 300 299 296 306 308 307 305 300 298
168 167 161 161 156 157 170 172 168 159 170 172 163 162 188 194 244 238 239 204 253 260 268 268 273 288 290 316 331 317 324 309 305 310 323 314 312 315 313 308 305 304 307
170 170 166 161 164 167 174 171 155 169 174 165 171 161 172 227 241 239 234 209 227 246 248 265 278 295 312 322 328 341 322 305 323 328 324 315 315 309 314 309 306 302 314
163 162 166 168 166 173 164 152 155 157 148 159 139 141 224 225 238 238 240 232 210 231 247 243 259 300 309 327 326 350 294 325 343 323 309 306 305 304 303 301 299 298 302
157 161 166 166 164 160 160 140 146 152 153 127 153 240 233 227 224 238 239 253 262 192 237 236 264 286 324 325 327 313 325 343 308 306 307 306 307 308 305 302 298 294 287
158 161 161 162 157 158 154 156 153 162 154 189 205 213 229 221 220 241 246 255 269 274 224 263 305 320 321 320 313 322 343 306 308 310 306 304 306 304 303 300 297 293 291
155 154 161 163 160 159 156 165 173 172 189 203 205 207 204 215 227 223 241 258 276 280 273 281 262 307 323 321 310 313 299 298 299 299 300 304 305 307 308 307 305 312 307
157 162 167 173 177 171 188 186 190 198 192 190 208 181 180 216 225 224 220 234 237 243 249 76 338 336 329 292 287 287 285 293 299 302 305 306 307 311 311 310 317 310 305
160 168 177 174 174 173 182 197 224 220 223 227 220 194 219 223 229 240 248 262 273 280 120 160 255 240 257 273 270 292 298 298 301 308 304 305 308 310 309 318 313 312 309
177 173 169 172 176 180 182 187 203 245 229 223 230 234 232 222 237 255 255 260 269 281 155 215 227 229 256 267 272 278 291 297 298 298 302 304 305 308 314 317 316 314 312
148 165 171 180 182 182 189 194 177 174 201 249 272 259 274 275 276 276 275 271 336 5 180 217 237 231 245 250 256 274 286 292 295 299 303 301 300 303 313 317 318 318 316
164 174 177 173 180 179 159 136 144 147 171 190 346 290 282 281 284 282 279 320 219 230 233 241 232 236 248 246 249 253 263 280 286 293 295 294 298 305 309 314 316 321 319
174 164 166 159 139 138 141 145 140 157 167 194 206 241 283 39 320 265 260 262 253 251 244 242 251 247 252 242 249 246 264 274 281 283 294 296 298 306 305 311 317 320 321
156 134 137 128 147 149 151 161 168 173 184 196 213 212 249 221 240 226 237 239 247 249 251 249 255 250 253 248 246 248 246 270 268 269 288 292 301 302 301 301 308 313 316
138 145 148 152 146 152 168 169 171 173 184 193 234 260 280 331 320 256 243 244 242 243 258 257 264 256 253 236 230 236 249 265 267 250 277 290 295 296 299 299 307 312 317
143 145 145 148 152 145 143 146 146 150 184 212 220 238 255 257 260 253 256 272 268 258 258 252 258 268 263 243 221 221 250 263 263 227 274 286 288 290 293 293 301 307 316
140 145 152 146 136 129 138 160 173 185 192 209 228 237 236 240 244 252 257 266 268 262 261 265 261 257 272 269 257 229 235 251 255 260 243 263 273 284 286 288 289 298 301
125 128 135 147 146 156 156 164 186 196 205 207 232 235 246 239 244 251 256 258 257 265 265 264 262 261 263 260 263 265 260 270 260 254 256 251 257 269 273 281 281 290 293
118 118 127 131 137 149 167 175 186 194 206 234 244 242 242 250 246 245 260 262 263 253 260 267 264 257 264 266 264 266 268 272 269 256 241 242 256 267 278 278 280 282 282